Simultaneous Nadir Overpasses (SNOs) Predictions

Prediction of SNOs between GOES-16 and NPP Satellite Orbit:

Table of predicted SNOs for the next 14.0 days since TLE Epoch: 4/27/2017
Index Date Time (GOES-16) GOES-16 Lat,Lon NPP Lat,Lon Distance(km) Time Diff (sec)
1 04/28/2017 19:19:55 -0.00, -89.48 0.23, -88.44 119.18 80
2 04/30/2017 07:41:43 0.00, -89.50 0.95, -93.71 479.60 80
3 05/01/2017 07:20:19 -0.00, -89.50 -0.07, -89.18 36.62 80
4 05/03/2017 19:23:31 0.00, -89.49 -0.11, -89.95 52.98 80
5 05/04/2017 19:07:26 0.00, -89.49 0.90, -85.42 463.99 80
6 05/06/2017 07:29:14 -0.00, -89.52 0.27, -90.69 133.36 80
7 05/07/2017 07:07:50 -0.00, -89.53 -0.74, -86.16 383.76 80
8 05/08/2017 19:29:46 0.01, -89.52 -0.44, -91.46 221.45 80
9 05/09/2017 19:13:42 0.01, -89.53 0.58, -86.93 296.05 80
10 05/11/2017 07:35:30 -0.02, -89.57 0.60, -92.20 300.43 80




NCC Satellite Simultaneous Nadir Overpasses (SNOs) Prediction Service
